| time (UTC) | temp C | wind direction | speed KPH | gust KPH | rain 1hr cm | rain 24hr cm | rain mn cm | humidity % | barometer mb |
| 20260905110547 | 13 | 198 | 1.6 | 1.6 | 0.00 | 0.00 | 0.00 | 99 | 1010.2 |
| 20260905110043 | 13 | 198 | 0.0 | 0.0 | 0.00 | 0.00 | 0.00 | 99 | 1010.1 |
| 20260905105542 | 13 | 197 | 0.0 | 1.6 | 0.00 | 0.00 | 0.00 | 99 | 1009.8 |
| 20260905105042 | 13 | 197 | 0.0 | 0.0 | 0.00 | 0.00 | 0.00 | 99 | 1009.7 |
| 20260905104538 | 13 | 197 | 0.0 | 0.0 | 0.00 | 0.00 | 0.00 | 99 | 1009.7 |
| 20260905104037 | 13 | 197 | 0.0 | 1.6 | 0.00 | 0.00 | 0.00 | 99 | 1009.8 |
| 20260905103533 | 14 | 197 | 0.0 | 1.6 | 0.00 | 0.00 | 0.00 | 99 | 1009.7 |
| 20260905103029 | 14 | 197 | 1.6 | 1.6 | 0.00 | 0.00 | 0.00 | 99 | 1009.7 |
| 20260905102524 | 14 | 197 | 0.0 | 0.0 | 0.00 | 0.00 | 0.00 | 99 | 1009.5 |
| 20260905102020 | 14 | 197 | 0.0 | 1.6 | 0.00 | 0.00 | 0.00 | 99 | 1009.7 |
| 20260905101518 | 14 | 197 | 1.6 | 1.6 | 0.00 | 0.00 | 0.00 | 99 | 1009.3 |
| 20260905101017 | 14 | 197 | 1.6 | 1.6 | 0.00 | 0.00 | 0.00 | 99 | 1009.5 |
| 20260905100514 | 14 | 197 | 1.6 | 1.6 | 0.00 | 0.00 | 0.00 | 99 | 1009.4 |
| 20260905100008 | 14 | 197 | 0.0 | 0.0 | 0.00 | 0.00 | 0.00 | 99 | 1009.4 |
| 20260905095503 | 14 | 198 | 1.6 | 1.6 | 0.00 | 0.00 | 0.00 | 99 | 1009.3 |
| 20260905094957 | 14 | 181 | 0.0 | 1.6 | 0.00 | 0.00 | 0.00 | 99 | 1009.4 |
| 20260905094453 | 14 | 178 | 1.6 | 1.6 | 0.00 | 0.00 | 0.00 | 99 | 1009.3 |
| 20260905093951 | 14 | 176 | 1.6 | 1.6 | 0.00 | 0.00 | 0.00 | 99 | 1009.4 |
| 20260905093447 | 14 | 176 | 1.6 | 1.6 | 0.00 | 0.00 | 0.00 | 99 | 1009.3 |
| 20260905092942 | 14 | 166 | 0.0 | 0.0 | 0.00 | 0.00 | 0.00 | 99 | 1009.2 |
| 20260905092438 | 14 | 166 | 0.0 | 0.0 | 0.00 | 0.00 | 0.00 | 99 | 1009.3 |
| 20260905091932 | 14 | 166 | 0.0 | 1.6 | 0.00 | 0.00 | 0.00 | 99 | 1009.2 |
| 20260905091427 | 14 | 166 | 0.0 | 0.0 | 0.00 | 0.00 | 0.00 | 99 | 1009.3 |
| 20260905090926 | 14 | 166 | 1.6 | 1.6 | 0.00 | 0.00 | 0.00 | 99 | 1009.4 |
| 20260905090422 | 15 | 166 | 0.0 | 0.0 | 0.00 | 0.00 | 0.00 | 99 | 1009.2 |
| 20260905085921 | 15 | 166 | 0.0 | 0.0 | 0.00 | 0.00 | 0.00 | 99 | 1009.4 |
| 20260905085420 | 15 | 164 | 0.0 | 0.0 | 0.00 | 0.00 | 0.00 | 99 | 1009.4 |
| 20260905084917 | 15 | 164 | 0.0 | 0.0 | 0.00 | 0.00 | 0.00 | 99 | 1009.5 |
| 20260905084415 | 15 | 164 | 0.0 | 0.0 | 0.00 | 0.00 | 0.00 | 99 | 1009.4 |
| 20260905083910 | 15 | 164 | 1.6 | 1.6 | 0.00 | 0.00 | 0.00 | 99 | 1009.3 |
| 20260905083407 | 15 | 164 | 0.0 | 0.0 | 0.00 | 0.00 | 0.00 | 99 | 1009.4 |
| 20260905082902 | 15 | 165 | 1.6 | 1.6 | 0.00 | 0.00 | 0.00 | 99 | 1009.3 |
| 20260905082358 | 15 | 165 | 0.0 | 0.0 | 0.00 | 0.00 | 0.00 | 99 | 1009.4 |
| 20260905081853 | 15 | 165 | 1.6 | 1.6 | 0.00 | 0.00 | 0.00 | 99 | 1009.5 |
| 20260905081348 | 15 | 165 | 0.0 | 0.0 | 0.00 | 0.00 | 0.00 | 99 | 1009.3 |
| 20260905080846 | 15 | 165 | 0.0 | 1.6 | 0.00 | 0.00 | 0.00 | 99 | 1009.5 |
| 20260905080341 | 15 | 165 | 0.0 | 1.6 | 0.00 | 0.00 | 0.00 | 99 | 1009.5 |
| 20260905075839 | 15 | 165 | 0.0 | 0.0 | 0.00 | 0.00 | 0.00 | 99 | 1009.3 |
| 20260905075334 | 15 | 165 | 1.6 | 1.6 | 0.00 | 0.00 | 0.00 | 99 | 1009.2 |
| 20260905074833 | 15 | 165 | 0.0 | 0.0 | 0.00 | 0.00 | 0.00 | 99 | 1009.3 |
| 20260905074329 | 15 | 165 | 0.0 | 0.0 | 0.00 | 0.00 | 0.00 | 99 | 1009.4 |
| 20260905073824 | 15 | 165 | 1.6 | 1.6 | 0.00 | 0.00 | 0.00 | 99 | 1009.4 |
| 20260905073319 | 15 | 165 | 1.6 | 1.6 | 0.00 | 0.00 | 0.00 | 99 | 1009.2 |
| 20260905072814 | 15 | 165 | 1.6 | 1.6 | 0.00 | 0.00 | 0.00 | 99 | 1009.5 |
| 20260905072309 | 15 | 165 | 1.6 | 1.6 | 0.00 | 0.00 | 0.00 | 99 | 1009.5 |
| 20260905071806 | 15 | 165 | 0.0 | 1.6 | 0.00 | 0.00 | 0.00 | 99 | 1009.5 |
| 20260905071302 | 15 | 165 | 0.0 | 1.6 | 0.00 | 0.00 | 0.00 | 99 | 1009.6 |
| 20260905070756 | 16 | 165 | 0.0 | 1.6 | 0.00 | 0.00 | 0.00 | 99 | 1009.6 |
| 20260905070252 | 16 | 165 | 0.0 | 1.6 | 0.00 | 0.00 | 0.00 | 99 | 1009.6 |
| 20260905065751 | 16 | 165 | 0.0 | 1.6 | 0.00 | 0.00 | 0.00 | 99 | 1009.7 |
| 20260905065244 | 16 | 165 | 0.0 | 0.0 | 0.00 | 0.00 | 0.00 | 99 | 1009.9 |
| 20260905064740 | 16 | 165 | 0.0 | 1.6 | 0.00 | 0.00 | 0.00 | 99 | 1010.1 |
| 20260905064235 | 16 | 165 | 0.0 | 1.6 | 0.00 | 0.00 | 0.00 | 99 | 1009.7 |
| 20260905063728 | 16 | 165 | 0.0 | 0.0 | 0.00 | 0.00 | 0.00 | 98 | 1009.8 |
| 20260905063224 | 16 | 165 | 1.6 | 1.6 | 0.00 | 0.00 | 0.00 | 98 | 1009.7 |
| 20260905062720 | 16 | 165 | 0.0 | 0.0 | 0.00 | 0.00 | 0.00 | 99 | 1009.7 |
| 20260905062219 | 16 | 165 | 0.0 | 0.0 | 0.00 | 0.00 | 0.00 | 98 | 1009.9 |
| 20260905061714 | 16 | 165 | 0.0 | 1.6 | 0.00 | 0.00 | 0.00 | 98 | 1010.1 |
| 20260905061209 | 16 | 165 | 0.0 | 1.6 | 0.00 | 0.00 | 0.00 | 98 | 1009.9 |
| 20260905060704 | 16 | 165 | 1.6 | 3.2 | 0.00 | 0.00 | 0.00 | 98 | 1009.9 |
| 20260905060201 | 16 | 165 | 0.0 | 0.0 | 0.00 | 0.00 | 0.00 | 99 | 1010.3 |
| 20260905055659 | 16 | 165 | 1.6 | 1.6 | 0.00 | 0.00 | 0.00 | 99 | 1010.3 |
| 20260905055154 | 16 | 165 | 0.0 | 1.6 | 0.00 | 0.00 | 0.00 | 99 | 1010.2 |
| 20260905054649 | 16 | 165 | 0.0 | 0.0 | 0.00 | 0.00 | 0.00 | 99 | 1010.2 |
| 20260905054145 | 17 | 165 | 0.0 | 1.6 | 0.00 | 0.00 | 0.00 | 99 | 1010.2 |
| 20260905053645 | 17 | 165 | 0.0 | 0.0 | 0.00 | 0.00 | 0.00 | 99 | 1010.3 |
| 20260905053140 | 17 | 165 | 0.0 | 0.0 | 0.00 | 0.00 | 0.00 | 99 | 1010.4 |
| 20260905052639 | 17 | 165 | 0.0 | 0.0 | 0.00 | 0.00 | 0.00 | 99 | 1010.5 |
| 20260905052134 | 17 | 165 | 0.0 | 0.0 | 0.00 | 0.00 | 0.00 | 99 | 1010.6 |
| 20260905051629 | 17 | 165 | 1.6 | 1.6 | 0.00 | 0.00 | 0.00 | 99 | 1010.7 |
| 20260905051126 | 17 | 165 | 0.0 | 0.0 | 0.00 | 0.00 | 0.00 | 99 | 1010.6 |
| 20260905050622 | 17 | 165 | 0.0 | 1.6 | 0.00 | 0.00 | 0.00 | 99 | 1010.6 |
| 20260905050119 | 17 | 165 | 0.0 | 1.6 | 0.00 | 0.00 | 0.00 | 99 | 1010.7 |
| 20260905045618 | 17 | 165 | 0.0 | 0.0 | 0.00 | 0.00 | 0.00 | 99 | 1010.6 |
| 20260905045114 | 17 | 165 | 0.0 | 0.0 | 0.00 | 0.00 | 0.00 | 99 | 1010.4 |
| 20260905044613 | 17 | 165 | 0.0 | 0.0 | 0.00 | 0.00 | 0.00 | 99 | 1010.7 |
| 20260905044108 | 17 | 165 | 0.0 | 0.0 | 0.00 | 0.00 | 0.00 | 99 | 1010.7 |
| 20260905043607 | 17 | 165 | 0.0 | 0.0 | 0.00 | 0.00 | 0.00 | 98 | 1010.8 |
| 20260905043103 | 17 | 165 | 0.0 | 0.0 | 0.00 | 0.00 | 0.00 | 98 | 1010.8 |
| 20260905042601 | 17 | 165 | 0.0 | 0.0 | 0.00 | 0.00 | 0.00 | 98 | 1011.0 |
| 20260905042056 | 17 | 165 | 0.0 | 0.0 | 0.00 | 0.00 | 0.00 | 98 | 1010.9 |
| 20260905041552 | 17 | 165 | 0.0 | 0.0 | 0.00 | 0.00 | 0.00 | 98 | 1010.7 |
| 20260905041047 | 17 | 165 | 0.0 | 0.0 | 0.00 | 0.00 | 0.00 | 98 | 1010.9 |
| 20260905040547 | 17 | 165 | 0.0 | 0.0 | 0.00 | 0.00 | 0.00 | 98 | 1010.7 |
| 20260905040045 | 17 | 165 | 0.0 | 0.0 | 0.00 | 0.00 | 0.00 | 98 | 1010.8 |
| 20260905035541 | 17 | 165 | 0.0 | 0.0 | 0.00 | 0.81 | 0.81 | 98 | 1010.6 |
| 20260905035038 | 17 | 165 | 0.0 | 0.0 | 0.00 | 0.81 | 0.81 | 97 | 1010.4 |
| 20260905034533 | 17 | 165 | 0.0 | 0.0 | 0.00 | 0.81 | 0.81 | 97 | 1010.8 |
| 20260905034033 | 17 | 165 | 0.0 | 0.0 | 0.00 | 0.81 | 0.81 | 97 | 1010.7 |
| 20260905033526 | 17 | 165 | 0.0 | 0.0 | 0.00 | 0.81 | 0.81 | 97 | 1010.8 |
| 20260905033023 | 17 | 165 | 0.0 | 0.0 | 0.00 | 0.81 | 0.81 | 97 | 1010.9 |
| 20260905032517 | 17 | 165 | 0.0 | 0.0 | 0.00 | 0.81 | 0.81 | 97 | 1010.8 |
| 20260905032012 | 17 | 165 | 0.0 | 0.0 | 0.00 | 0.81 | 0.81 | 96 | 1010.7 |
| 20260905031508 | 17 | 165 | 0.0 | 0.0 | 0.00 | 0.81 | 0.81 | 96 | 1010.7 |
| 20260905031003 | 17 | 165 | 0.0 | 0.0 | 0.00 | 0.81 | 0.81 | 96 | 1010.5 |
| 20260905030458 | 17 | 165 | 0.0 | 0.0 | 0.00 | 0.81 | 0.81 | 96 | 1010.7 |
| 20260905025956 | 17 | 165 | 0.0 | 0.0 | 0.00 | 0.81 | 0.81 | 95 | 1010.5 |
| 20260905025452 | 17 | 165 | 0.0 | 0.0 | 0.00 | 0.81 | 0.81 | 95 | 1010.7 |
| 20260905024944 | 17 | 165 | 0.0 | 0.0 | 0.00 | 0.81 | 0.81 | 95 | 1010.6 |
| 20260905024444 | 18 | 165 | 0.0 | 0.0 | 0.00 | 0.81 | 0.81 | 95 | 1010.9 |
| 20260905023939 | 17 | 165 | 0.0 | 0.0 | 0.00 | 0.81 | 0.81 | 94 | 1010.7 |
| 20260905023434 | 18 | 165 | 0.0 | 0.0 | 0.00 | 0.81 | 0.81 | 94 | 1010.8 |
| 20260905022933 | 18 | 165 | 0.0 | 0.0 | 0.00 | 0.81 | 0.81 | 94 | 1011.0 |
| 20260905022428 | 18 | 165 | 0.0 | 0.0 | 0.00 | 0.81 | 0.81 | 94 | 1010.9 |
| 20260905021923 | 18 | 165 | 0.0 | 0.0 | 0.00 | 0.81 | 0.81 | 94 | 1010.9 |
| 20260905021418 | 18 | 165 | 0.0 | 0.0 | 0.00 | 0.81 | 0.81 | 94 | 1010.8 |
| 20260905020913 | 18 | 165 | 0.0 | 0.0 | 0.00 | 0.81 | 0.81 | 94 | 1010.9 |
| 20260905020412 | 18 | 165 | 0.0 | 0.0 | 0.00 | 0.81 | 0.81 | 94 | 1010.8 |
| 20260905015912 | 18 | 165 | 0.0 | 0.0 | 0.00 | 0.81 | 0.81 | 95 | 1011.0 |
| 20260905015410 | 18 | 165 | 0.0 | 1.6 | 0.00 | 0.81 | 0.81 | 91 | 1010.7 |
| 20260905014910 | 18 | 165 | 0.0 | 0.0 | 0.00 | 0.81 | 0.81 | 92 | 1010.6 |
| 20260905014405 | 18 | 164 | 0.0 | 0.0 | 0.00 | 0.81 | 0.81 | 93 | 1010.7 |
| 20260905013900 | 18 | 164 | 0.0 | 0.0 | 0.00 | 0.81 | 0.81 | 93 | 1010.8 |
| 20260905013357 | 18 | 164 | 0.0 | 0.0 | 0.00 | 0.81 | 0.81 | 94 | 1010.9 |
| 20260905012852 | 18 | 164 | 0.0 | 0.0 | 0.00 | 0.81 | 0.81 | 93 | 1010.7 |
| 20260905012347 | 18 | 164 | 0.0 | 0.0 | 0.00 | 0.81 | 0.81 | 93 | 1010.6 |
| 20260905011844 | 18 | 164 | 0.0 | 0.0 | 0.00 | 0.81 | 0.81 | 92 | 1011.0 |
| 20260905011339 | 18 | 165 | 0.0 | 0.0 | 0.00 | 0.81 | 0.81 | 92 | 1010.5 |
| 20260905010835 | 18 | 165 | 0.0 | 0.0 | 0.00 | 0.81 | 0.81 | 92 | 1010.7 |
| 20260905010330 | 18 | 165 | 0.0 | 0.0 | 0.00 | 0.81 | 0.81 | 92 | 1010.7 |
| 20260905005826 | 18 | 165 | 0.0 | 0.0 | 0.00 | 0.81 | 0.81 | 92 | 1010.5 |
| 20260905005322 | 18 | 164 | 0.0 | 0.0 | 0.00 | 0.81 | 0.81 | 91 | 1011.0 |
| 20260905004816 | 18 | 165 | 0.0 | 1.6 | 0.00 | 0.81 | 0.81 | 91 | 1010.7 |
| 20260905004311 | 18 | 165 | 0.0 | 0.0 | 0.00 | 0.81 | 0.81 | 91 | 1010.9 |
| 20260905003806 | 18 | 164 | 0.0 | 1.6 | 0.00 | 0.81 | 0.81 | 91 | 1010.7 |
| 20260905003302 | 18 | 165 | 0.0 | 1.6 | 0.00 | 0.81 | 0.81 | 90 | 1010.7 |
| 20260905002757 | 18 | 165 | 0.0 | 0.0 | 0.00 | 0.81 | 0.81 | 89 | 1010.7 |
| 20260905002251 | 18 | 165 | 0.0 | 0.0 | 0.00 | 0.81 | 0.81 | 89 | 1010.6 |
| 20260905001746 | 18 | 165 | 0.0 | 0.0 | 0.00 | 0.81 | 0.81 | 89 | 1010.6 |
| 20260905001246 | 18 | 165 | 0.0 | 0.0 | 0.00 | 0.81 | 0.81 | 90 | 1010.5 |
| 20260905000742 | 18 | 164 | 0.0 | 0.0 | 0.00 | 0.81 | 0.81 | 90 | 1010.5 |
| 20260905000237 | 18 | 164 | 0.0 | 0.0 | 0.00 | 0.81 | 0.81 | 89 | 1010.4 |
| 20260904235732 | 18 | 164 | 0.0 | 0.0 | 0.00 | 0.81 | 0.81 | 87 | 1010.3 |
| 20260904235226 | 19 | 164 | 0.0 | 0.0 | 0.00 | 0.81 | 0.81 | 86 | 1010.1 |
| 20260904234721 | 20 | 164 | 0.0 | 0.0 | 0.00 | 0.81 | 0.81 | 85 | 1010.3 |
| 20260904234217 | 20 | 165 | 0.0 | 0.0 | 0.00 | 0.81 | 0.81 | 83 | 1010.5 |
| 20260904233712 | 20 | 164 | 0.0 | 1.6 | 0.00 | 0.81 | 0.81 | 83 | 1010.2 |
| 20260904233209 | 20 | 164 | 0.0 | 0.0 | 0.00 | 0.81 | 0.81 | 82 | 1010.2 |
| 20260904232705 | 20 | 164 | 1.6 | 1.6 | 0.00 | 0.81 | 0.81 | 82 | 1010.2 |
| 20260904232201 | 20 | 164 | 0.0 | 1.6 | 0.00 | 0.81 | 0.81 | 80 | 1010.4 |
| 20260904231656 | 21 | 176 | 0.0 | 1.6 | 0.00 | 0.81 | 0.81 | 80 | 1010.4 |
| 20260904231151 | 21 | 175 | 0.0 | 1.6 | 0.00 | 0.81 | 0.81 | 80 | 1010.3 |
| 20260904230651 | 21 | 188 | 0.0 | 1.6 | 0.00 | 0.81 | 0.81 | 80 | 1010.3 |
| 20260904230146 | 21 | 148 | 0.0 | 1.6 | 0.00 | 0.81 | 0.81 | 80 | 1010.3 |
| 20260904225644 | 21 | 340 | 0.0 | 0.0 | 0.00 | 0.81 | 0.81 | 80 | 1010.1 |
| 20260904225139 | 21 | 340 | 1.6 | 1.6 | 0.00 | 0.81 | 0.81 | 79 | 1010.4 |
| 20260904224633 | 21 | 181 | 0.0 | 0.0 | 0.00 | 0.81 | 0.81 | 80 | 1010.4 |
| 20260904224128 | 22 | 174 | 0.0 | 1.6 | 0.00 | 0.81 | 0.81 | 81 | 1010.4 |
| 20260904223627 | 22 | 174 | 0.0 | 0.0 | 0.00 | 0.81 | 0.81 | 80 | 1010.2 |
| 20260904223122 | 22 | 169 | 0.0 | 1.6 | 0.00 | 0.81 | 0.81 | 80 | 1010.4 |
| 20260904222619 | 22 | 165 | 0.0 | 0.0 | 0.00 | 0.81 | 0.81 | 79 | 1010.3 |
| 20260904222113 | 22 | 179 | 0.0 | 1.6 | 0.00 | 0.81 | 0.81 | 78 | 1010.5 |
| 20260904221608 | 22 | 172 | 0.0 | 0.0 | 0.00 | 0.81 | 0.81 | 80 | 1010.5 |
| 20260904221107 | 22 | 172 | 1.6 | 1.6 | 0.00 | 0.81 | 0.81 | 80 | 1010.4 |
| 20260904220603 | 23 | 178 | 0.0 | 0.0 | 0.00 | 0.81 | 0.81 | 77 | 1010.2 |
| 20260904220058 | 23 | 176 | 0.0 | 0.0 | 0.00 | 0.81 | 0.81 | 77 | 1010.3 |
| 20260904215558 | 23 | 176 | 0.0 | 1.6 | 0.00 | 0.81 | 0.81 | 77 | 1010.6 |
| 20260904215054 | 23 | 175 | 0.0 | 1.6 | 0.00 | 0.81 | 0.81 | 76 | 1010.2 |
| 20260904214549 | 23 | 176 | 0.0 | 1.6 | 0.00 | 0.81 | 0.81 | 73 | 1010.4 |
| 20260904214044 | 24 | 156 | 3.2 | 3.2 | 0.00 | 0.81 | 0.81 | 71 | 1010.3 |
| 20260904213542 | 25 | 157 | 0.0 | 0.0 | 0.00 | 0.81 | 0.81 | 70 | 1010.3 |
| 20260904213039 | 25 | 103 | 0.0 | 1.6 | 0.00 | 0.81 | 0.81 | 71 | 1010.1 |
| 20260904212538 | 25 | 170 | 0.0 | 0.0 | 0.00 | 0.81 | 0.81 | 70 | 1010.1 |
| 20260904212028 | 25 | 207 | 0.0 | 0.0 | 0.00 | 0.81 | 0.81 | 69 | 1009.7 |
| 20260904211528 | 25 | 198 | 1.6 | 1.6 | 0.00 | 0.81 | 0.81 | 71 | 1010.1 |
| 20260904211023 | 25 | 198 | 0.0 | 1.6 | 0.00 | 0.81 | 0.81 | 72 | 1010.1 |
| 20260904210523 | 25 | 196 | 0.0 | 0.0 | 0.00 | 0.81 | 0.81 | 71 | 1009.8 |
| 20260904210019 | 25 | 197 | 0.0 | 1.6 | 0.00 | 0.81 | 0.81 | 71 | 1010.1 |
| 20260904205514 | 25 | 195 | 0.0 | 0.0 | 0.00 | 0.81 | 0.81 | 67 | 1010.2 |
| 20260904205011 | 26 | 220 | 3.2 | 3.2 | 0.00 | 0.81 | 0.81 | 66 | 1010.3 |
| 20260904204506 | 26 | 206 | 1.6 | 1.6 | 0.00 | 0.81 | 0.81 | 65 | 1010.1 |
| 20260904204002 | 26 | 225 | 1.6 | 3.2 | 0.00 | 0.81 | 0.81 | 64 | 1010.2 |
| 20260904203458 | 26 | 64 | 1.6 | 1.6 | 0.00 | 0.81 | 0.81 | 64 | 1010.4 |
| 20260904202954 | 26 | 212 | 1.6 | 3.2 | 0.00 | 0.81 | 0.81 | 68 | 1010.4 |
| 20260904202450 | 26 | 196 | 0.0 | 1.6 | 0.00 | 0.81 | 0.81 | 66 | 1010.5 |
| 20260904201946 | 26 | 223 | 0.0 | 1.6 | 0.00 | 0.81 | 0.81 | 68 | 1010.6 |
| 20260904201441 | 25 | 252 | 3.2 | 4.8 | 0.00 | 0.81 | 0.81 | 65 | 1010.8 |
| 20260904200936 | 26 | 145 | 0.0 | 0.0 | 0.00 | 0.81 | 0.81 | 66 | 1010.6 |
| 20260904200434 | 26 | 75 | 1.6 | 3.2 | 0.00 | 0.81 | 0.81 | 64 | 1010.6 |
| 20260904195930 | 26 | 234 | 1.6 | 1.6 | 0.00 | 0.81 | 0.81 | 66 | 1010.7 |
| 20260904195428 | 26 | 165 | 3.2 | 4.8 | 0.00 | 0.81 | 0.81 | 64 | 1010.7 |
| 20260904194927 | 26 | 244 | 0.0 | 1.6 | 0.00 | 0.81 | 0.81 | 68 | 1010.6 |
| 20260904194427 | 26 | 213 | 4.8 | 4.8 | 0.00 | 0.81 | 0.81 | 68 | 1010.7 |
| 20260904193922 | 25 | 202 | 3.2 | 4.8 | 0.00 | 0.81 | 0.81 | 66 | 1010.5 |
| 20260904193418 | 25 | 203 | 6.4 | 9.7 | 0.00 | 0.81 | 0.81 | 64 | 1010.5 |
| 20260904192913 | 26 | 204 | 8.0 | 12.9 | 0.00 | 0.81 | 0.81 | 64 | 1010.9 |
| 20260904192409 | 25 | 180 | 3.2 | 3.2 | 0.00 | 0.81 | 0.81 | 67 | 1010.8 |
| 20260904191905 | 25 | 174 | 8.0 | 9.7 | 0.00 | 0.81 | 0.81 | 65 | 1010.8 |
| 20260904191401 | 25 | 206 | 6.4 | 11.3 | 0.00 | 0.81 | 0.81 | 73 | 1011.0 |
| 20260904190857 | 26 | 155 | 1.6 | 3.2 | 0.00 | 0.81 | 0.81 | 67 | 1011.0 |
| 20260904190352 | 26 | 66 | 1.6 | 1.6 | 0.00 | 0.81 | 0.81 | 68 | 1010.8 |
| 20260904185849 | 26 | 135 | 1.6 | 1.6 | 0.00 | 0.81 | 0.81 | 68 | 1010.8 |
| 20260904185344 | 25 | 173 | 1.6 | 3.2 | 0.00 | 0.81 | 0.81 | 66 | 1010.9 |
| 20260904184844 | 26 | 166 | 1.6 | 3.2 | 0.00 | 0.81 | 0.81 | 67 | 1011.0 |
| 20260904184339 | 26 | 152 | 0.0 | 0.0 | 0.00 | 0.81 | 0.81 | 70 | 1011.2 |
| 20260904183834 | 26 | 183 | 3.2 | 4.8 | 0.00 | 0.81 | 0.81 | 64 | 1011.2 |
| 20260904183329 | 26 | 16 | 1.6 | 1.6 | 0.00 | 0.81 | 0.81 | 68 | 1011.2 |
| 20260904182824 | 26 | 197 | 3.2 | 3.2 | 0.00 | 0.81 | 0.81 | 70 | 1011.4 |
| 20260904182319 | 26 | 194 | 1.6 | 3.2 | 0.00 | 0.81 | 0.81 | 71 | 1011.1 |
| 20260904181815 | 26 | 184 | 0.0 | 0.0 | 0.00 | 0.81 | 0.81 | 68 | 1011.1 |
| 20260904181315 | 26 | 208 | 3.2 | 3.2 | 0.00 | 0.81 | 0.81 | 71 | 1011.1 |
| 20260904180810 | 26 | 126 | 0.0 | 0.0 | 0.00 | 0.81 | 0.81 | 73 | 1011.6 |
| 20260904180305 | 26 | 203 | 3.2 | 3.2 | 0.00 | 0.81 | 0.81 | 71 | 1011.3 |
| 20260904175804 | 25 | 358 | 1.6 | 3.2 | 0.00 | 0.81 | 0.81 | 71 | 1011.3 |
| 20260904175305 | 25 | 180 | 3.2 | 4.8 | 0.00 | 0.81 | 0.81 | 68 | 1011.1 |
| 20260904174758 | 25 | 255 | 3.2 | 6.4 | 0.00 | 0.81 | 0.81 | 73 | 1011.2 |
| 20260904174254 | 25 | 96 | 1.6 | 1.6 | 0.00 | 0.81 | 0.81 | 77 | 1011.2 |
| 20260904173749 | 26 | 103 | 4.8 | 6.4 | 0.00 | 0.81 | 0.81 | 71 | 1011.2 |
| 20260904173244 | 26 | 240 | 3.2 | 4.8 | 0.00 | 0.81 | 0.81 | 75 | 1011.3 |
| 20260904172741 | 25 | 225 | 3.2 | 4.8 | 0.00 | 0.81 | 0.81 | 73 | 1011.2 |
| 20260904172239 | 25 | 120 | 1.6 | 3.2 | 0.00 | 0.81 | 0.81 | 73 | 1011.2 |
| 20260904171734 | 25 | 210 | 1.6 | 3.2 | 0.00 | 0.81 | 0.81 | 71 | 1011.1 |
| 20260904171229 | 25 | 196 | 3.2 | 3.2 | 0.00 | 0.81 | 0.81 | 74 | 1011.1 |
| 20260904170725 | 25 | 141 | 1.6 | 3.2 | 0.00 | 0.81 | 0.81 | 73 | 1011.4 |
| 20260904170221 | 25 | 133 | 3.2 | 4.8 | 0.00 | 0.81 | 0.81 | 73 | 1011.4 |
| 20260904165720 | 25 | 19 | 3.2 | 4.8 | 0.00 | 0.81 | 0.81 | 73 | 1011.1 |
| 20260904165215 | 25 | 62 | 1.6 | 1.6 | 0.00 | 0.81 | 0.81 | 72 | 1011.1 |
| 20260904164709 | 25 | 108 | 0.0 | 1.6 | 0.00 | 0.81 | 0.81 | 75 | 1011.3 |
| 20260904164204 | 25 | 96 | 1.6 | 1.6 | 0.00 | 0.81 | 0.81 | 79 | 1011.2 |
| 20260904163700 | 25 | 86 | 1.6 | 1.6 | 0.00 | 0.81 | 0.81 | 74 | 1011.4 |
| 20260904163155 | 24 | 184 | 4.8 | 4.8 | 0.00 | 0.81 | 0.81 | 79 | 1011.1 |
| 20260904162654 | 24 | 133 | 0.0 | 1.6 | 0.00 | 0.81 | 0.81 | 77 | 1011.6 |
| 20260904162149 | 24 | 81 | 4.8 | 6.4 | 0.00 | 0.81 | 0.81 | 75 | 1011.5 |
| 20260904161645 | 25 | 26 | 0.0 | 1.6 | 0.00 | 0.81 | 0.81 | 77 | 1011.7 |
| 20260904161140 | 25 | 169 | 6.4 | 11.3 | 0.00 | 0.81 | 0.81 | 72 | 1011.8 |
| 20260904160636 | 25 | 74 | 1.6 | 3.2 | 0.00 | 0.81 | 0.81 | 72 | 1011.7 |
| 20260904160131 | 25 | 168 | 3.2 | 3.2 | 0.00 | 0.81 | 0.81 | 73 | 1011.6 |
| 20260904155626 | 25 | 222 | 3.2 | 4.8 | 0.00 | 0.81 | 0.81 | 73 | 1011.7 |
| 20260904155120 | 25 | 74 | 1.6 | 1.6 | 0.00 | 0.81 | 0.81 | 75 | 1011.7 |
| 20260904154613 | 24 | 78 | 3.2 | 4.8 | 0.00 | 0.81 | 0.81 | 71 | 1011.5 |
| 20260904154113 | 23 | 172 | 0.0 | 0.0 | 0.00 | 0.81 | 0.81 | 79 | 1011.6 |
| 20260904153608 | 23 | 104 | 1.6 | 1.6 | 0.00 | 0.81 | 0.81 | 80 | 1011.7 |
| 20260904153104 | 23 | 186 | 1.6 | 1.6 | 0.00 | 0.81 | 0.81 | 80 | 1011.9 |
| 20260904152600 | 23 | 156 | 1.6 | 3.2 | 0.00 | 0.81 | 0.81 | 81 | 1011.7 |
| 20260904152055 | 23 | 227 | 1.6 | 3.2 | 0.00 | 0.81 | 0.81 | 79 | 1011.7 |
| 20260904151550 | 23 | 125 | 3.2 | 4.8 | 0.00 | 0.81 | 0.81 | 77 | 1011.8 |
| 20260904151049 | 23 | 213 | 1.6 | 3.2 | 0.00 | 0.81 | 0.81 | 84 | 1011.8 |
| 20260904150544 | 23 | 167 | 4.8 | 4.8 | 0.00 | 0.81 | 0.81 | 79 | 1011.8 |
| 20260904150039 | 23 | 229 | 3.2 | 3.2 | 0.00 | 0.81 | 0.81 | 84 | 1011.7 |
| 20260904145538 | 24 | 189 | 3.2 | 4.8 | 0.00 | 0.81 | 0.81 | 81 | 1011.7 |
| 20260904145033 | 24 | 136 | 1.6 | 3.2 | 0.00 | 0.81 | 0.81 | 83 | 1011.8 |
| 20260904144529 | 23 | 334 | 1.6 | 3.2 | 0.00 | 0.81 | 0.81 | 83 | 1012.0 |
| 20260904144026 | 23 | 228 | 4.8 | 6.4 | 0.00 | 0.81 | 0.81 | 81 | 1011.9 |
| 20260904143521 | 23 | 251 | 3.2 | 4.8 | 0.00 | 0.81 | 0.81 | 87 | 1011.8 |
| 20260904143018 | 23 | 224 | 3.2 | 3.2 | 0.00 | 0.81 | 0.81 | 87 | 1011.8 |
| 20260904142514 | 23 | 160 | 3.2 | 3.2 | 0.00 | 0.81 | 0.81 | 82 | 1011.7 |
| 20260904142013 | 22 | 156 | 1.6 | 3.2 | 0.00 | 0.81 | 0.81 | 87 | 1012.0 |
| 20260904141508 | 22 | 268 | 1.6 | 4.8 | 0.00 | 0.81 | 0.81 | 90 | 1011.8 |
| 20260904141004 | 22 | 173 | 4.8 | 4.8 | 0.00 | 0.81 | 0.81 | 87 | 1011.6 |
| 20260904140459 | 22 | 155 | 1.6 | 1.6 | 0.00 | 0.81 | 0.81 | 91 | 1011.8 |
| 20260904135958 | 22 | 148 | 1.6 | 3.2 | 0.00 | 0.81 | 0.81 | 94 | 1011.5 |
| 20260904135452 | 21 | 203 | 1.6 | 3.2 | 0.00 | 0.81 | 0.81 | 97 | 1011.6 |
| 20260904134948 | 21 | 197 | 3.2 | 4.8 | 0.00 | 0.81 | 0.81 | 98 | 1011.8 |
| 20260904134443 | 20 | 177 | 1.6 | 3.2 | 0.00 | 0.81 | 0.81 | 99 | 1011.7 |
| 20260904133937 | 20 | 198 | 1.6 | 1.6 | 0.00 | 0.81 | 0.81 | 99 | 1011.6 |
| 20260904133432 | 20 | 194 | 3.2 | 3.2 | 0.00 | 0.81 | 0.81 | 99 | 1011.6 |
| 20260904132928 | 21 | 218 | 6.4 | 6.4 | 0.00 | 0.81 | 0.81 | 99 | 1011.7 |
| 20260904132423 | 20 | 175 | 0.0 | 1.6 | 0.00 | 0.81 | 0.81 | 99 | 1011.8 |
| 20260904131922 | 20 | 177 | 1.6 | 1.6 | 0.00 | 0.81 | 0.81 | 99 | 1011.5 |
| 20260904131418 | 20 | 154 | 1.6 | 1.6 | 0.00 | 0.81 | 0.81 | 99 | 1011.7 |
| 20260904130914 | 20 | 182 | 0.0 | 1.6 | 0.00 | 0.81 | 0.81 | 99 | 1011.9 |
| 20260904130412 | 20 | 193 | 3.2 | 3.2 | 0.00 | 0.81 | 0.81 | 99 | 1011.4 |
| 20260904125907 | 20 | 167 | 0.0 | 1.6 | 0.00 | 0.81 | 0.81 | 99 | 1011.6 |
| 20260904125404 | 20 | 174 | 1.6 | 1.6 | 0.00 | 0.81 | 0.81 | 99 | 1011.3 |
| 20260904124903 | 20 | 174 | 1.6 | 1.6 | 0.00 | 0.81 | 0.81 | 99 | 1011.4 |
| 20260904124400 | 20 | 192 | 3.2 | 3.2 | 0.00 | 0.81 | 0.81 | 99 | 1011.5 |
| 20260904123855 | 20 | 175 | 1.6 | 1.6 | 0.00 | 0.81 | 0.81 | 99 | 1011.7 |
| 20260904123349 | 20 | 174 | 1.6 | 1.6 | 0.00 | 0.81 | 0.81 | 99 | 1011.6 |
| 20260904122844 | 20 | 168 | 1.6 | 1.6 | 0.00 | 0.81 | 0.81 | 99 | 1011.7 |
| 20260904122338 | 20 | 170 | 1.6 | 1.6 | 0.00 | 0.81 | 0.81 | 99 | 1011.5 |
| 20260904121834 | 19 | 153 | 0.0 | 0.0 | 0.00 | 0.81 | 0.81 | 99 | 1011.6 |
| 20260904121330 | 19 | 170 | 1.6 | 1.6 | 0.00 | 0.81 | 0.81 | 99 | 1011.7 |
| 20260904120826 | 19 | 168 | 0.0 | 1.6 | 0.00 | 0.81 | 0.81 | 99 | 1011.7 |
| 20260904120322 | 19 | 168 | 1.6 | 1.6 | 0.00 | 0.81 | 0.81 | 99 | 1011.7 |
| 20260904115816 | 19 | 168 | 1.6 | 1.6 | 0.00 | 0.81 | 0.81 | 99 | 1011.6 |
| 20260904115312 | 18 | 165 | 1.6 | 1.6 | 0.00 | 0.81 | 0.81 | 99 | 1011.5 |
| 20260904114811 | 18 | 165 | 1.6 | 1.6 | 0.00 | 0.81 | 0.81 | 99 | 1011.5 |
| 20260904114306 | 18 | 160 | 0.0 | 0.0 | 0.00 | 0.81 | 0.81 | 99 | 1011.2 |
| 20260904113802 | 18 | 160 | 0.0 | 0.0 | 0.00 | 0.81 | 0.81 | 99 | 1011.2 |
| 20260904113300 | 18 | 161 | 1.6 | 1.6 | 0.00 | 0.81 | 0.81 | 99 | 1011.4 |
| 20260904112755 | 18 | 161 | 1.6 | 1.6 | 0.00 | 0.81 | 0.81 | 99 | 1011.2 |
| 20260904112251 | 18 | 157 | 1.6 | 1.6 | 0.00 | 0.81 | 0.81 | 99 | 1011.3 |
| 20260904111747 | 18 | 157 | 0.0 | 0.0 | 0.00 | 0.81 | 0.81 | 99 | 1011.1 |
| 20260904111242 | 18 | 157 | 0.0 | 0.0 | 0.00 | 0.81 | 0.81 | 99 | 1011.2 |
| 20260904110738 | 18 | 157 | 0.0 | 0.0 | 0.00 | 0.81 | 0.81 | 99 | 1011.3 |